Showing default

COSMOS 2227, 22284

Orbit data source: Space-Track

COSMOS 2227, 22284 is a payload satellite owned by GRU (CIS) in LEO that was launched on Fri, 25 Dec 1992 UTC via a ZENIT-2 launch vehicle from the Tyuratam Missile And Space Complex (TTMTR). Payload-class satellites include a variety of spacecraft equipped with specific instruments for various scientific and technological missions. These include communications satellites like Starlink; space stations such as the ISS; scientific satellites like the Hubble; Earth observation satellites from companies like Planet Labs, Umbra, and HawkEye 360; GPS; miniature CubeSats for education and research; and military/defense satellites.

Loading next visibility...
Identifier
22284, 1992-093A
Orbit
LEO
Country
Flag of CISCIS
Related business
Manufacturer
Yuzhnoe
Mission
Defense Sigint
Bus & Motor
TSELINA-2, Unknown motor
Mass
3,250 kg wet, 3,250 kg dry
Launch date (UTC)
1992-12-25 (33 years ago)
Launch vehicle
ZENIT-2
Launch site
Tyuratam Missile And Space Complex (TTMTR)
Object type
Payload
Rocket body
Debris
Shape & HBR
Unknown shape, 9.5 m
Radar Cross Section
Large (>1 m²)

Expand to show TLE details & history
Last TLE update: 12 hours ago

TLE from 12 hours ago
0 COSMOS 2227
1 22284U 92093A   26037.61079287  .00000148  00000-0  10316-3 0  9996
2 22284  70.9793  97.0663 0016380  77.7485 282.5470 14.13765774708370
Epoch: 2026-02-06T14:39Z
TLE epoch observation values (Epoch: 2026-02-06T14:39:32.503Z)
Latitude
-0.00004°
Longitude
100.43467°
Altitude
846.359 km
Speed
7.431 km/s
True Right ascension
06h 28m 15s
True Declination
0° 00' 00"
Sunlit
Object was in full shadow at epoch
Visualization orbit readout
Latitude
Unknown
Longitude
Unknown
Altitude
Unknown
Speed
Unknown
Apparent Right ascension
Unknown
Apparent Declination
Unknown
Sunlit
N/A
Visualization observer readout
Local Sidereal Time
05:14:26
Azimuth
Unknown
Elevation
Unknown
Doppler factor
Unknown
Orbital elements
Apogee altitude
856.273 km
Perigee altitude
832.611 km
Semi-major axis
7,222.579 km
Eccentricity
0.00164
Inclination
70.9793°
RAAN
97.0663°
Arg. of periapsis
77.7485°
True anomaly
282.3637°
Mean anomaly
282.547°
Eccentric anomaly
282.45536°
Mean motion
3.53594 °/min
Orbital period
101.81 mins
BSTAR
0.00010316
Loading maneuver chart data...
Computing Atmospheric mass density...
Loading historical data...
Loading historical data...
Loading historical data...
Loading historical data...
Loading historical data...
Loading historical data...
Loading historical data...

Documentation

Showing up to 5 results
|